This is the latest recevied weather packets stored in our database for station/object HP1COO-13. If no packets are shown the sender has not sent any weather packets the latest 10 day(s).
| Time | Temp. | Humidity | Pressure | Rain* | Wind** | Luminosity | Snow |
|---|---|---|---|---|---|---|---|
| 1777763367 | 23.89° C | 99% | 1009.8 hPa | 4.32 mm | - | - | - |
| 1777762734 | 23.89° C | 99% | 1009.6 hPa | 4.32 mm | - | - | - |
| 1777762101 | 23.89° C | 99% | 1009.7 hPa | 6.1 mm | - | - | - |
| 1777761468 | 23.89° C | 99% | 1009.6 hPa | 6.6 mm | - | - | - |
| 1777760835 | 23.89° C | 99% | 1009.4 hPa | 9.4 mm | - | - | - |
| 1777760202 | 23.89° C | 99% | 1009.4 hPa | 13.21 mm | - | - | - |
| 1777759569 | 23.89° C | 99% | 1009.6 hPa | 13.72 mm | - | - | - |
| 1777758936 | 23.89° C | 99% | 1009.4 hPa | 12.95 mm | - | - | - |
| 1777758303 | 23.89° C | 99% | 1009.6 hPa | 12.45 mm | - | - | - |
| 1777757670 | 23.89° C | 99% | 1009.8 hPa | 15.75 mm | - | - | - |
| 1777757037 | 23.89° C | 99% | 1009.5 hPa | 24.89 mm | - | - | - |
| 1777756557 | 24.44° C | 99% | 1009.6 hPa | 39.37 mm | - | - | - |
| 1777756317 | 24.44° C | 99% | 1009.6 hPa | 39.37 mm | - | - | - |
| 1777756197 | 24.44° C | 99% | 1009.5 hPa | 48.26 mm | - | - | - |
| 1777754033 | 23.89° C | 99% | 1009.4 hPa | 45.97 mm | - | - | - |
| 1777753400 | 24.44° C | 98% | 1009.1 hPa | 31.75 mm | - | - | - |
| 1777752767 | 24.44° C | 96% | 1008.8 hPa | 13.72 mm | - | - | - |
| 1777752287 | 25.56° C | 93% | 1008.3 hPa | 3.3 mm | - | - | - |
| 1777752047 | 26.11° C | 93% | 1008.1 hPa | 3.05 mm | - | - | - |
| 1777751927 | 26.11° C | 92% | 1008.1 hPa | 3.05 mm | - | - | - |
| 1777728474 | 26.11° C | 94% | 1008.5 hPa | 0 mm | - | - | - |
| 1777728234 | 26.11° C | 94% | 1008.6 hPa | 0 mm | - | - | - |
| 1777728114 | 26.11° C | 94% | 1008.6 hPa | 0 mm | - | - | - |
| 1777727389 | 26.11° C | 94% | 1008.4 hPa | 0 mm | - | - | - |
| 1777726756 | 26.11° C | 94% | 1008.3 hPa | 0 mm | - | - | - |
* Rain latest hour (hover to see other rain measurements)
** Current wind speed in m/s (hover to see current wind gust speed)